Location: Pacheco
(37.9835°N, 122.0752°W)
Time: 00:02:52
(UTC+00:00)

SL-16 R/B - Pass Details

Date: 13 April 2024
Orbit: 985 x 1006 km, 99.7° (Epoch: 21 May)

Event Time Altitude Azimuth Distance (km) Brightness Sun altitude
Exits shadow 12:36:06 12° 272° (W) 2,585 4.2 -11.9°
Drops below altitude 10° 12:38:17 10° 293° (WNW) 2,758 4.5 -11.5°
Sets 12:42:39 0° 322° (NW) 3,719 5.4 -10.7°
